Location: Chiroubles
(46.1812°N, 4.6660°E)
Time: 16:26:14
(UTC+00:00)

SL-08 RB Rocket - Pass Details

Date: 15 August 2020
Orbit: 646 x 685 km, 97.8° (Epoch: 23 September)

Event Time Altitude Azimuth Distance (km) Brightness Sun altitude
Rises 19:32:11 0° 175° (S) 3,019 6.8 -7.5°
Reaches altitude 10° 19:34:26 10° 179° (S) 2,114 6.0 -7.8°
Maximum altitude 19:39:00 60° 259° (W) 781 4.3 -8.5°
Drops below altitude 10° 19:43:39 10° 340° (NNW) 2,141 7.1 -9.2°
Sets 19:45:56 0° 344° (NNW) 3,063 7.9 -9.6°
